Location: Banff
(51.1667°N, 115.5667°W)
Time: 13:32:44
(UTC+00:00)

Courier 1B Rocket - Pass Details

Date: 30 November 2020
Orbit: 920 x 1202 km, 28.2° (Epoch: 17 January)

Event Time Altitude Azimuth Distance (km) Brightness Sun altitude
Rises 13:38:48 0° 219° (SW) 4,090 8.0 -15.6°
Reaches altitude 10° 13:44:36 10° 186° (S) 3,120 7.8 -14.8°
Maximum altitude 13:46:21 11° 173° (S) 3,048 7.9 -14.5°
Drops below altitude 10° 13:48:05 10° 160° (SSE) 3,102 8.1 -14.2°
Sets 13:53:47 0° 127° (SE) 4,016 9.7 -13.4°
